SKW4213 KIAH-KDEN

Flight info

Callsign SKW4213
Flight time N/A
Altitude 34000
Route STYCK8 DOLEY MRMAC ROLLS HALEN NIIXX4
Aircraft E75L/M-SDE3GILORVW/S

Departure

Time 2026-05-07 22:38
Airport George Bush Intercontinental Airport (KIAH)

Arrival

Time N/A
Airport Denver International Airport (KDEN)
Time Latitude Longitude Altitude Speed Heading
2026-05-07 21:47 29.98496 -95.34681 105 ft 0 kts 314°
2026-05-07 21:56 29.98494 -95.34679 105 ft 1 kts 314°
2026-05-07 21:56 29.98482 -95.34664 104 ft 3 kts 313°
2026-05-07 21:56 29.98471 -95.34649 104 ft 3 kts 275°
2026-05-07 21:57 29.98461 -95.34651 105 ft 3 kts 188°
2026-05-07 21:57 29.98441 -95.34650 105 ft 3 kts 175°
2026-05-07 21:57 29.98429 -95.34649 105 ft 1 kts 178°
2026-05-07 21:57 29.98444 -95.34650 104 ft 3 kts 178°
2026-05-07 21:58 29.98452 -95.34650 104 ft 0 kts 178°
2026-05-07 22:00 29.98451 -95.34650 105 ft 0 kts 178°
2026-05-07 22:02 29.98450 -95.34650 114 ft 0 kts 178°
2026-05-07 22:05 29.98449 -95.34650 105 ft 1 kts 178°
2026-05-07 22:06 29.98445 -95.34650 105 ft 0 kts 178°
2026-05-07 22:07 29.98497 -95.34682 105 ft 14 kts 314°
2026-05-07 22:08 29.98494 -95.34684 105 ft 0 kts 314°
2026-05-07 22:08 29.98497 -95.34681 105 ft 0 kts 314°
2026-05-07 22:10 29.98497 -95.34682 105 ft 14 kts 314°
2026-05-07 22:10 29.98494 -95.34684 105 ft 0 kts 314°
2026-05-07 22:13 29.98495 -95.34676 105 ft 0 kts 314°
2026-05-07 22:14 29.98498 -95.34681 105 ft 0 kts 314°
2026-05-07 22:14 29.98487 -95.34680 105 ft 0 kts 314°
2026-05-07 22:15 29.98496 -95.34683 105 ft 0 kts 314°
2026-05-07 22:16 29.98495 -95.34683 96 ft 0 kts 315°
2026-05-07 22:21 29.98497 -95.34682 105 ft 14 kts 314°
2026-05-07 22:23 29.98494 -95.34684 105 ft 0 kts 314°
2026-05-07 22:26 29.98497 -95.34682 105 ft 14 kts 314°
2026-05-07 22:27 29.98497 -95.34681 105 ft 0 kts 314°
2026-05-07 22:35 29.98492 -95.34674 105 ft 3 kts 316°
2026-05-07 22:35 29.98477 -95.34659 105 ft 3 kts 314°
2026-05-07 22:35 29.98470 -95.34648 105 ft 3 kts 236°
2026-05-07 22:36 29.98671 -95.35714 106 ft 22 kts 152°
2026-05-07 22:36 29.98333 -95.35512 103 ft 86 kts 154°
2026-05-07 22:37 29.97663 -95.35066 113 ft 136 kts 148°
2026-05-07 22:37 29.96677 -95.34504 198 ft 173 kts 150°
2026-05-07 22:37 29.95549 -95.33896 512 ft 182 kts 156°
2026-05-07 22:37 29.94337 -95.33343 454 ft 194 kts 154°
2026-05-07 22:38 29.93109 -95.32719 603 ft 197 kts 152°
2026-05-07 22:38 29.91708 -95.32446 761 ft 226 kts 191°
2026-05-07 22:38 29.90309 -95.33429 1673 ft 255 kts 228°
2026-05-07 22:38 29.88879 -95.34944 1953 ft 314 kts 210°